EW2812 Weather Reports


Display with metric or nautical units.
time (UTC)temp
F
wind
direction
speed
MPH
gust
MPH
rain 1hr
in
rain 24hr
in
rain mn
in
humidity
%
barometer
mb
20260506114606 0 294 0.0 0.0 0.00 0.00 0.00 1012.1
20260506113056 0 294 0.0 0.0 0.00 0.00 0.00 1012.0
20260506111551 0 289 0.0 0.0 0.00 0.00 0.00 1012.1
20260506110146 0 355 0.0 0.0 0.00 0.00 0.00 1012.1
20260506104553 0 355 0.0 0.0 0.00 0.00 0.00 1012.0
20260506103040 0 300 0.0 0.0 0.00 0.00 0.00 1012.0
20260506101536 0 300 0.0 0.0 0.00 0.00 0.00 1012.1
20260506100130 0 298 0.0 0.0 0.00 0.00 0.00 1012.1
20260506094527 0 11 0.0 0.0 0.00 0.00 0.00 1012.1
20260506093030 0 360 0.0 0.0 0.00 0.00 0.00 1012.1
20260506091516 0 355 0.0 0.0 0.00 0.00 0.00 1012.0
20260506090112 0 360 0.0 0.0 0.00 0.00 0.00 1011.8
20260506084513 0 5 0.0 0.0 0.00 0.00 0.00 1011.8
20260506083007 0 306 0.0 0.0 0.00 0.00 0.00 1011.8
20260506081507 0 304 0.0 0.0 0.00 0.00 0.00 1011.8
20260506080104 0 302 0.0 0.0 0.00 0.00 0.00 1011.9
20260506073051 0 300 0.0 0.0 0.00 0.00 0.00 1011.8
20260506071545 0 300 0.0 0.0 0.00 0.00 0.00 1011.8
20260506061541 0 300 0.0 0.0 0.00 0.00 0.00 1011.6
20260506044517 0 299 0.0 0.0 0.00 0.00 0.00 1011.4
20260506043012 0 299 0.0 0.0 0.00 0.00 0.00 1011.3
20260506041507 0 321 0.0 0.0 0.00 0.00 0.00 1011.3
20260506040003 0 325 0.0 0.0 0.00 0.00 0.00 1011.2
20260506034610 0 325 0.0 0.0 0.00 0.00 0.00 1011.3
20260506033046 0 326 0.0 0.0 0.00 0.00 0.00 1011.3
20260506031550 0 317 0.0 0.0 0.00 0.00 0.00 1011.4
20260506030037 0 313 0.0 0.0 0.00 0.00 0.00 1011.5
20260506024546 0 238 0.0 0.0 0.00 0.00 0.00 1011.7
20260506023036 0 33 0.0 0.0 0.00 0.00 0.00 1011.8
20260506021533 0 28 0.0 0.0 0.00 0.00 0.00 1011.8
20260506020030 0 28 0.0 0.0 0.00 0.00 0.00 1011.8
20260506014522 0 28 0.0 0.0 0.00 0.00 0.00 1011.8
20260506013021 0 351 0.0 0.0 0.00 0.00 0.00 1011.9
20260506011518 0 351 0.0 0.0 0.00 0.00 0.00 1011.9
20260506010027 0 331 0.0 0.0 0.00 0.00 0.00 1012.0
20260506004508 0 340 0.0 0.0 0.00 0.00 0.00 1012.1
20260506003004 0 355 0.0 0.0 0.00 0.00 0.00 1012.2
20260506001609 0 347 0.0 0.0 0.00 0.00 0.00 1012.3
20260506000056 0 360 0.0 0.0 0.00 0.00 0.00 1012.2
20260505234550 0 292 0.0 0.0 0.00 0.00 0.00 1012.3
20260505233057 0 41 0.0 0.0 0.00 0.00 0.00 1012.1
20260505231541 0 355 0.0 0.0 0.00 0.00 0.00 1012.1
20260505230041 0 36 0.0 0.0 0.00 0.00 0.00 1012.2
20260505224543 0 341 0.0 0.0 0.00 0.00 0.00 1012.3
20260505223036 0 351 0.0 0.0 0.00 0.00 0.00 1012.2
20260505221529 0 346 0.0 0.0 0.00 0.00 0.00 1012.2
20260505220027 0 55 0.0 0.0 0.00 0.00 0.00 1012.2
20260505214517 0 60 0.0 0.0 0.00 0.00 0.00 1012.1
20260505213020 0 60 0.0 0.0 0.00 0.00 0.00 1012.1
20260505211508 0 60 0.0 0.0 0.00 0.00 0.00 1012.1
20260505210004 0 60 0.0 0.0 0.00 0.00 0.00 1012.1
20260505204505 0 60 0.0 0.0 0.00 0.00 0.00 1012.1
20260505203001 0 60 0.0 0.0 0.00 0.00 0.00 1012.1
20260505201559 0 60 0.0 0.0 0.00 0.00 0.00 1012.0
20260505200053 0 59 0.0 0.0 0.00 0.00 0.00 1011.8
20260505194556 0 48 0.0 0.0 0.00 0.00 0.00 1011.6
20260505193053 0 9 0.0 0.0 0.00 0.00 0.00 1011.4
20260505191601 0 5 0.0 0.0 0.00 0.00 0.00 1011.4
20260505190054 0 5 0.0 0.0 0.00 0.00 0.00 1011.4
20260505184542 0 5 0.0 0.0 0.00 0.00 0.00 1011.2
20260505183047 0 338 0.0 0.0 0.00 0.00 0.00 1011.2
20260505181533 0 336 0.0 0.0 0.00 0.00 0.00 1011.1
20260505180024 0 26 0.0 0.0 0.00 0.00 0.00 1011.1
20260505174511 0 50 0.0 0.0 0.00 0.00 0.00 1011.0
20260505173006 0 82 0.0 0.0 0.00 0.00 0.00 1010.9
20260505171502 0 57 0.0 0.0 0.00 0.00 0.00 1011.0
20260505170058 0 76 0.0 0.0 0.00 0.00 0.00 1011.1
20260505164503 0 16 0.0 0.0 0.00 0.00 0.00 1011.1
20260505163058 0 28 0.0 0.0 0.00 0.00 0.00 1011.1
20260505161616 0 57 0.0 0.0 0.00 0.00 0.00 1011.1
20260505153039 0 82 0.0 0.0 0.00 0.00 0.00 1011.3
20260505151536 0 147 0.0 0.0 0.00 0.00 0.00 1011.3
20260505124558 0 17 0.0 0.0 0.00 0.00 0.00 1011.9
20260505123054 0 349 0.0 0.0 0.00 0.00 0.00 1011.9
20260505121550 0 38 0.0 0.0 0.00 0.00 0.00 1011.9
20260505120104 0 340 0.0 0.0 0.00 0.00 0.00 1011.9